Weather History for Fort Polk, LA

Change the Weather History Date:

Thursday, April 4, 2013

  Actual Average (KPOE) Record (KPOE)
Temperature  
Mean Temperature 46 °F -  
Max Temperature 48 °F 73 °F 84 °F (2001)
Min Temperature 44 °F 54 °F 44 °F (2013)
Degree Days  
Heating Degree Days 19    
Moisture  
Dew Point 42 °F    
Average Humidity 87    
Maximum Humidity 93    
Minimum Humidity 76    
Precipitation  
Precipitation 0.01 in - - ()
Sea Level Pressure  
Sea Level Pressure 30.05 in    
Wind  
Wind Speed 5 mph (NNW)    
Max Wind Speed 8 mph    
Max Gust Speed -    
Visibility 7 miles    
Events      
Averages and records for this station are not official NWS values.
T = Trace of Precipitation, MM = Missing Value Source: NWS Daily Summary

Daily Weather History Graph

Daily Weather History Graph

Search for Another Location

Airport:

Trip Planner

Search our weather history database for the weather conditions in past years. The results will help you decide how hot, cold, wet, or windy it might be!

Date:

Astronomy

Apr. 04, 2013 Rise Set
Actual Time 6:57 AM CDT 7:34 PM CDT
Civil Twilight 6:33 AM CDT 7:59 PM CDT
Nautical Twilight 6:04 AM CDT 8:28 PM CDT
Astronomical Twilight 5:35 AM CDT 8:57 PM CDT
Moon 3:03 AM CDT (4/4) 2:13 PM CDT (4/4)
Length of Visible Light 13h 26m
Length of Day
12h 36m
Waning Crescent, 33% of the Moon is Illuminated
Apr 4
Waning Crescent
Apr 10
New
Apr 18
First Quarter
Apr 25
Full
May 2
Last Quarter

Hourly Weather History & Observations

Time (CDT) Temp. Windchill Dew Point Humidity Pressure Visibility Wind Dir Wind Speed Gust Speed Precip Events Conditions
12:56 AM 46.0 °F 43.9 °F 43.0 °F 89% 30.06 in 10.0 mi North 4.6 mph - N/A   Overcast
1:56 AM 45.0 °F 41.2 °F 43.0 °F 93% 30.04 in 4.0 mi North 6.9 mph - N/A   Overcast
2:22 AM 44.6 °F 42.2 °F 42.8 °F 93% 30.02 in 3.0 mi Variable 4.6 mph - N/A   Overcast
2:56 AM 44.1 °F 41.5 °F 42.1 °F 93% 30.02 in 2.5 mi North 4.6 mph - N/A   Overcast
3:18 AM 44.6 °F 41.4 °F 42.8 °F 93% 30.00 in 3.0 mi North 5.8 mph - N/A   Overcast
3:56 AM 44.1 °F 41.5 °F 42.1 °F 93% 29.99 in 3.0 mi Variable 4.6 mph - 0.01 in   Overcast
4:56 AM 44.1 °F 41.5 °F 42.1 °F 93% 30.00 in 6.0 mi Variable 4.6 mph - N/A   Overcast
5:12 AM 44.6 °F 42.2 °F 42.8 °F 93% 30.00 in 2.5 mi Variable 4.6 mph - N/A   Overcast
5:42 AM 44.6 °F 43.1 °F 42.8 °F 93% 30.00 in 3.0 mi Variable 3.5 mph - N/A   Overcast
5:56 AM 44.1 °F 41.5 °F 42.1 °F 93% 30.01 in 2.5 mi Variable 4.6 mph - N/A   Overcast
6:13 AM 44.6 °F - 42.8 °F 93% 30.01 in 3.0 mi Calm Calm - N/A   Overcast
6:56 AM 44.1 °F 40.8 °F 41.0 °F 89% 30.02 in 7.0 mi North 5.8 mph - N/A   Overcast
7:30 AM 44.6 °F 43.1 °F 42.8 °F 93% 30.04 in 10.0 mi Variable 3.5 mph - N/A   Overcast
7:53 AM 44.6 °F 43.1 °F 42.8 °F 93% 30.04 in 7.0 mi Variable 3.5 mph - N/A   Overcast
7:56 AM 44.1 °F 41.5 °F 42.1 °F 93% 30.04 in 7.0 mi North 4.6 mph - N/A   Overcast
8:32 AM 44.6 °F 43.1 °F 41.0 °F 87% 30.06 in 10.0 mi Variable 3.5 mph - N/A   Overcast
8:56 AM 44.1 °F 41.5 °F 42.1 °F 93% 30.07 in 6.0 mi NW 4.6 mph - N/A   Overcast
9:07 AM 44.6 °F 43.1 °F 42.8 °F 93% 30.07 in 1.8 mi Variable 3.5 mph - N/A   Overcast
9:14 AM 44.6 °F 41.4 °F 42.8 °F 93% 30.07 in 3.0 mi Variable 5.8 mph - N/A   Overcast
9:56 AM 45.0 °F 43.5 °F 42.1 °F 90% 30.07 in 7.0 mi Variable 3.5 mph - N/A   Overcast
10:56 AM 46.0 °F - 42.1 °F 86% 30.08 in 10.0 mi Calm Calm - N/A   Overcast
11:56 AM 46.9 °F - 42.1 °F 83% 30.09 in 10.0 mi West 5.8 mph - N/A   Overcast
12:56 PM 48.0 °F - 42.1 °F 80% 30.06 in 10.0 mi West 5.8 mph - N/A   Overcast
1:56 PM 48.0 °F - 42.1 °F 80% 30.06 in - Variable 4.6 mph - N/A   Overcast
2:56 PM 48.0 °F - 41.0 °F 77% 30.04 in 10.0 mi Variable 6.9 mph - N/A   Overcast
3:15 PM 48.2 °F - 41.0 °F 76% 30.03 in 10.0 mi Variable 4.6 mph - N/A   Overcast
3:56 PM 48.0 °F - 41.0 °F 77% 30.04 in 10.0 mi Variable 5.8 mph - N/A   Overcast
4:56 PM 48.0 °F - 41.0 °F 77% 30.04 in 10.0 mi Variable 5.8 mph - N/A   Overcast
5:07 PM 48.2 °F - 41.0 °F 76% 30.04 in 10.0 mi Variable 5.8 mph - N/A   Overcast
5:21 PM 48.2 °F - 41.0 °F 76% 30.04 in 10.0 mi NNW 8.1 mph - N/A   Overcast
5:45 PM 46.4 °F 43.5 °F 41.0 °F 81% 30.05 in 10.0 mi Variable 5.8 mph - N/A   Overcast
5:54 PM 46.4 °F 43.5 °F 42.8 °F 87% 30.05 in 8.0 mi Variable 5.8 mph - N/A   Overcast
5:56 PM 46.9 °F - 42.1 °F 83% 30.05 in 7.0 mi Variable 4.6 mph - N/A   Overcast
6:04 PM 46.4 °F 44.3 °F 42.8 °F 87% 30.05 in 7.0 mi Variable 4.6 mph - N/A   Overcast
6:07 PM 46.4 °F 45.2 °F 42.8 °F 87% 30.05 in 8.0 mi Variable 3.5 mph - N/A   Overcast
6:36 PM 46.4 °F 45.2 °F 42.8 °F 87% 30.05 in 10.0 mi Variable 3.5 mph - N/A   Overcast
6:56 PM 46.9 °F - 42.1 °F 83% 30.06 in 10.0 mi Variable 3.5 mph - N/A   Overcast
7:56 PM 46.0 °F - 42.1 °F 86% 30.07 in 10.0 mi Calm Calm - N/A   Overcast
8:56 PM 46.9 °F - 42.1 °F 83% 30.09 in 10.0 mi Variable 3.5 mph - N/A   Overcast
9:56 PM 46.9 °F - 42.1 °F 83% 30.10 in 10.0 mi North 6.9 mph - N/A   Overcast
10:18 PM 46.4 °F 44.3 °F 42.8 °F 87% 30.10 in 10.0 mi Variable 4.6 mph - N/A   Overcast
10:56 PM 46.9 °F - 42.1 °F 83% 30.11 in 10.0 mi Calm Calm - N/A   Overcast
11:56 PM 46.9 °F - 42.1 °F 83% 30.13 in 10.0 mi Variable 3.5 mph - N/A   Overcast